sat.trackr.live / text

‹ back to catalog

STARLINK-31891

NORAD 59854 · 2024-097V

PAYLOAD ACTIVE UNKNOWN

§ Identity

Operator
Country
US
Launch date
2024-05-23
Launch site
AFETR
Launch vehicle
Mass (kg)
RCS (m²)

Purposes: comms

External: N2YO · Heavens-Above · Gunter

§ Orbital elements

Epoch: 2026-09-21T15:39:54.204480Z

Period
94.27 min
Inclination
43.0003°
Eccentricity
0.0000999
Mean motion
15.27575294 rev/d
Perigee alt
482.4 km
Apogee alt
483.7 km
Semi-major
6,861.2 km
B*
1.4312e-5
RAAN
247.9333°
Arg perigee
272.4219°
Mean anomaly
87.6519°
Rev number
13,188

§ Raw data

STARLINK-318911 59854U 24097V   26264.65271070  .00000132  00000+0  14312-4 0  99912 59854  43.0003 247.9333 0000999 272.4219  87.6519 15.27575294131882

JSON: /api/v1/satellites/59854 · /tle

For live sub-satellite position, see the globe view (requires WebGL).

§ Visibility from observer

Set your observer location to see the next 7 days of passes ≥ 10°. The values pass through the URL so the page stays shareable.

No JS? Fill the form by hand. The geolocation button needs JavaScript.